SL-16 DEB

基本信息
目录编号:
28354
目录名称:
SL-16 DEB
国际标识:
2004-021C
轨道中心:
EARTH
物体状态:
在轨
发射日期:
2004-06-10 UTC
轨道信息
数据来源: 国际轨道数据
星历时间: 2026-07-14T03:16:09+0800
半长轴: 7381.069km
偏心率: 0.0222203
轨道倾角: 70.955°
近地点辐角: 316.911°
升交点赤经: 93.238°
平近点角: 41.477°
近地点: 838.922km
远地点: 1166.942km
周期: 105.181分钟
每日圈数: 13.690644
详细信息
发射场:
TTMTR
轨道高度:
LEO
数据来源:
AOE Integration Group
参考系:
TEME
时间系统:
UTC
历元类型:
SGP4
2D轨道图
3D轨道图
轨道高度分析图
轨道倾角分析图
轨道综合分析图
查看轨道综合分析图